EW1669 Weather Reports


time (UTC)temp
C
wind
direction
speed
KPH
gust
KPH
rain 1hr
cm
rain 24hr
cm
rain mn
cm
humidity
%
barometer
mb
20260509145203 20 151 4.8 20.9 0.00 0.00 0.00 35 1015.3
20260509144616 20 131 9.7 14.5 0.00 0.00 0.00 36 1015.3
20260509144008 19 158 6.4 14.5 0.00 0.00 0.00 37 1015.3
20260509143609 19 128 11.3 14.5 0.00 0.00 0.00 38 1015.6
20260509142913 18 136 6.4 11.3 0.00 0.00 0.00 39 1015.6
20260509142753 19 160 1.6 14.5 0.00 0.00 0.00 39 1015.3
20260509141557 18 159 3.2 9.7 0.00 0.00 0.00 40 1015.6
20260509140951 18 131 4.8 6.4 0.00 0.00 0.00 41 1015.6
20260509140351 18 130 0.0 6.4 0.00 0.00 0.00 42 1015.6
20260509140108 18 145 0.0 4.8 0.00 0.00 0.00 43 1015.6
20260509135249 17 142 1.6 4.8 0.00 0.00 0.00 43 1015.6
20260509134656 17 140 0.0 3.2 0.00 0.00 0.00 44 1015.6
20260509134152 17 147 0.0 0.0 0.00 0.00 0.00 44 1016.0
20260509133746 16 107 0.0 0.0 0.00 0.00 0.00 42 1015.6
20260509133633 17 130 0.0 0.0 0.00 0.00 0.00 43 1015.6
20260509132456 16 107 0.0 0.0 0.00 0.00 0.00 41 1015.6
20260509131846 16 107 0.0 0.0 0.00 0.00 0.00 43 1015.6
20260509131257 15 107 0.0 0.0 0.00 0.00 0.00 43 1015.3
20260509130652 16 107 0.0 0.0 0.00 0.00 0.00 42 1015.3
20260509130534 15 107 0.0 0.0 0.00 0.00 0.00 44 1015.3
20260509125504 13 106 0.0 0.0 0.00 0.00 0.00 46 1015.3
20260509124856 13 106 0.0 0.0 0.00 0.00 0.00 48 1015.3
20260509124257 12 106 0.0 0.0 0.00 0.00 0.00 49 1015.6
20260509123718 11 106 0.0 0.0 0.00 0.00 0.00 50 1015.0
20260509123153 10 105 0.0 0.0 0.00 0.00 0.00 55 1015.0
20260509123052 10 105 0.0 0.0 0.00 0.00 0.00 53 1015.3
20260509121912 10 105 0.0 0.0 0.00 0.00 0.00 55 1015.0
20260509121251 10 106 0.0 0.0 0.00 0.00 0.00 56 1015.0
20260509120654 10 106 0.0 0.0 0.00 0.00 0.00 56 1015.3
20260509120233 10 106 0.0 0.0 0.00 0.00 0.00 54 1015.0
20260509120112 10 106 0.0 0.0 0.00 0.00 0.00 55 1015.3
20260509114852 10 106 0.0 0.0 0.00 0.00 0.00 53 1015.0
20260509114306 10 106 0.0 0.0 0.00 0.00 0.00 52 1015.0
20260509113652 11 106 0.0 0.0 0.00 0.00 0.00 52 1015.0
20260509113051 11 107 0.0 0.0 0.00 0.00 0.00 52 1015.0
20260509112454 12 107 0.0 0.0 0.00 0.00 0.00 50 1015.0
20260509112119 12 107 0.0 0.0 0.00 0.00 0.00 49 1015.3
20260509111250 12 107 0.0 0.0 0.00 0.00 0.00 48 1015.0
20260509110717 13 107 0.0 0.0 0.00 0.00 0.00 46 1015.0
20260509110055 13 108 0.0 0.0 0.00 0.00 0.00 46 1015.0
20260509105456 13 107 0.0 0.0 0.00 0.00 0.00 46 1015.0
20260509104858 13 108 0.0 0.0 0.00 0.00 0.00 45 1015.0
20260509104313 13 107 0.0 0.0 0.00 0.00 0.00 43 1015.0
20260509103653 14 106 0.0 0.0 0.00 0.00 0.00 42 1015.0
20260509103056 14 116 0.0 0.0 0.00 0.00 0.00 42 1015.3
20260509102454 14 124 0.0 0.0 0.00 0.00 0.00 42 1015.0
20260509101902 15 133 0.0 1.6 0.00 0.00 0.00 41 1015.6
20260509101251 15 128 0.0 0.0 0.00 0.00 0.00 42 1015.3
20260509100900 15 124 0.0 3.2 0.00 0.00 0.00 42 1015.6
20260509100050 15 123 1.6 3.2 0.00 0.00 0.00 42 1015.3
20260509095508 15 114 0.0 0.0 0.00 0.00 0.00 41 1015.3
20260509094856 14 109 0.0 0.0 0.00 0.00 0.00 42 1015.3
20260509094252 14 110 0.0 0.0 0.00 0.00 0.00 42 1015.3
20260509093917 14 112 0.0 0.0 0.00 0.00 0.00 42 1015.3
20260509093051 15 103 0.0 0.0 0.00 0.00 0.00 42 1015.3
20260509092721 15 107 0.0 0.0 0.00 0.00 0.00 41 1015.3
20260509091843 15 103 0.0 0.0 0.00 0.00 0.00 41 1015.6
20260509091235 15 102 0.0 0.0 0.00 0.00 0.00 40 1015.3
20260509090655 15 102 0.0 0.0 0.00 0.00 0.00 40 1015.3
20260509090106 15 105 0.0 0.0 0.00 0.00 0.00 40 1015.3
20260509085739 15 119 0.0 0.0 0.00 0.00 0.00 39 1015.6
20260509084948 15 143 0.0 0.0 0.00 0.00 0.00 40 1015.3
20260509084352 15 135 0.0 0.0 0.00 0.00 0.00 40 1015.6
20260509083748 15 123 0.0 0.0 0.00 0.00 0.00 39 1015.3
20260509083154 15 97 0.0 0.0 0.00 0.00 0.00 40 1015.6
20260509082547 15 129 0.0 0.0 0.00 0.00 0.00 40 1015.6
20260509082000 15 113 0.0 0.0 0.00 0.00 0.00 39 1015.6
20260509081351 15 107 0.0 0.0 0.00 0.00 0.00 39 1015.6
20260509081118 15 129 0.0 0.0 0.00 0.00 0.00 39 1015.6
20260509080903 15 129 0.0 0.0 0.00 0.00 0.00 39 1015.6
20260509080251 15 127 0.0 0.0 0.00 0.00 0.00 39 1015.6
20260509075911 15 130 0.0 0.0 0.00 0.00 0.00 39 1015.6
20260509075320 15 110 0.0 1.6 0.00 0.00 0.00 39 1015.6
20260509074452 16 123 0.0 1.6 0.00 0.00 0.00 38 1015.6
20260509073856 16 126 0.0 1.6 0.00 0.00 0.00 38 1015.6
20260509073251 16 71 0.0 0.0 0.00 0.00 0.00 38 1015.6
20260509072652 16 130 0.0 0.0 0.00 0.00 0.00 37 1016.0
20260509072310 16 125 0.0 0.0 0.00 0.00 0.00 37 1015.6
20260509071513 16 104 0.0 0.0 0.00 0.00 0.00 37 1016.0
20260509071216 16 128 0.0 0.0 0.00 0.00 0.00 37 1015.6
20260509070439 16 106 0.0 3.2 0.00 0.00 0.00 36 1015.6
20260509070345 17 132 0.0 1.6 0.00 0.00 0.00 36 1015.6
20260509065252 17 108 0.0 4.8 0.00 0.00 0.00 36 1015.3
20260509064653 17 125 0.0 4.8 0.00 0.00 0.00 35 1015.3
20260509064055 17 121 0.0 3.2 0.00 0.00 0.00 35 1015.3
20260509063448 17 112 0.0 9.7 0.00 0.00 0.00 35 1015.0
20260509062852 17 110 4.8 9.7 0.00 0.00 0.00 35 1015.0
20260509062502 17 136 0.0 11.3 0.00 0.00 0.00 35 1015.0
20260509061652 17 110 0.0 11.3 0.00 0.00 0.00 34 1015.0
20260509061329 17 76 0.0 3.2 0.00 0.00 0.00 34 1015.3
20260509060813 17 107 0.0 1.6 0.00 0.00 0.00 34 1015.0
20260509060204 18 117 0.0 3.2 0.00 0.00 0.00 33 1015.0
20260509055353 18 112 0.0 3.2 0.00 0.00 0.00 33 1015.0
20260509055229 18 106 0.0 6.4 0.00 0.00 0.00 33 1015.0
20260509054131 18 117 3.2 6.4 0.00 0.00 0.00 33 1015.0
20260509053621 18 128 0.0 1.6 0.00 0.00 0.00 32 1015.3
20260509052951 18 88 0.0 1.6 0.00 0.00 0.00 32 1015.0
20260509052358 19 110 0.0 6.4 0.00 0.00 0.00 31 1015.0
20260509051753 19 92 0.0 14.5 0.00 0.00 0.00 31 1015.0
20260509051150 19 130 0.0 3.2 0.00 0.00 0.00 31 1015.0
20260509050550 19 102 0.0 4.8 0.00 0.00 0.00 31 1014.6
20260509050218 19 117 1.6 11.3 0.00 0.00 0.00 30 1014.6
20260509045353 19 118 1.6 9.7 0.00 0.00 0.00 30 1014.6
20260509044744 19 102 1.6 11.3 0.00 0.00 0.00 30 1014.6
20260509044150 20 104 0.0 11.3 0.00 0.00 0.00 30 1015.0
20260509043557 20 121 0.0 9.7 0.00 0.00 0.00 29 1015.0
20260509043213 20 117 1.6 4.8 0.00 0.00 0.00 29 1014.6
20260509042436 20 99 1.6 3.2 0.00 0.00 0.00 29 1015.0
20260509041838 20 115 0.0 1.6 0.00 0.00 0.00 29 1015.0
20260509041304 20 122 0.0 3.2 0.00 0.00 0.00 28 1014.6
20260509040652 20 126 1.6 3.2 0.00 0.00 0.00 28 1015.0
20260509040317 20 114 0.0 9.7 0.00 0.00 0.00 28 1015.0
20260509035447 20 99 3.2 9.7 0.00 0.00 0.00 28 1015.0
20260509034859 21 87 3.2 6.4 0.00 0.00 0.00 27 1015.0
20260509034252 21 123 0.0 4.8 0.00 0.00 0.00 27 1015.0
20260509033654 21 98 0.0 1.6 0.00 0.00 0.00 27 1015.0
20260509033047 21 129 0.0 0.0 0.00 0.00 0.00 27 1015.0
20260509032440 21 110 0.0 0.0 0.00 0.00 0.00 26 1015.0
20260509031900 21 130 0.0 0.0 0.00 0.00 0.00 26 1014.6
20260509031252 21 110 0.0 6.4 0.00 0.00 0.00 26 1014.6
20260509031132 21 59 0.0 6.4 0.00 0.00 0.00 26 1015.0
20260509030312 21 157 3.2 6.4 0.00 0.00 0.00 26 1014.3
20260509025455 22 86 0.0 0.0 0.00 0.00 0.00 25 1014.6
20260509024852 22 108 0.0 1.6 0.00 0.00 0.00 25 1014.6
20260509024307 22 83 0.0 3.2 0.00 0.00 0.00 25 1014.6
20260509023700 22 89 0.0 4.8 0.00 0.00 0.00 25 1013.9
20260509023055 22 80 1.6 3.2 0.00 0.00 0.00 25 1014.3
20260509022506 22 56 0.0 0.0 0.00 0.00 0.00 24 1014.3
20260509022336 23 65 0.0 0.0 0.00 0.00 0.00 24 1014.3
20260509021254 23 89 0.0 0.0 0.00 0.00 0.00 24 1013.9
20260509020623 23 73 0.0 0.0 0.00 0.00 0.00 24 1013.9
20260509020059 23 69 0.0 0.0 0.00 0.00 0.00 24 1013.9
20260509015512 23 87 0.0 0.0 0.00 0.00 0.00 23 1013.9
20260509014950 23 38 0.0 0.0 0.00 0.00 0.00 23 1013.9
20260509014607 24 64 0.0 0.0 0.00 0.00 0.00 23 1013.6
20260509013750 24 40 0.0 0.0 0.00 0.00 0.00 22 1013.6
20260509013159 25 31 0.0 0.0 0.00 0.00 0.00 22 1013.6
20260509012605 25 52 0.0 0.0 0.00 0.00 0.00 21 1013.9
20260509011338 25 81 0.0 3.2 0.00 0.00 0.00 21 1013.6
20260509010738 25 30 1.6 3.2 0.00 0.00 0.00 21 1013.6
20260509010146 26 72 0.0 3.2 0.00 0.00 0.00 21 1013.3
20260509005612 26 22 1.6 3.2 0.00 0.00 0.00 20 1013.6
20260509005002 26 49 0.0 4.8 0.00 0.00 0.00 20 1013.6
20260509004349 26 52 1.6 6.4 0.00 0.00 0.00 20 1013.3
20260509003739 26 65 0.0 3.2 0.00 0.00 0.00 20 1013.6
20260509003523 26 74 0.0 4.8 0.00 0.00 0.00 20 1013.3
20260509002507 27 61 0.0 0.0 0.00 0.00 0.00 20 1013.3
20260509002138 27 54 0.0 4.8 0.00 0.00 0.00 20 1013.3
20260509001612 27 31 0.0 11.3 0.00 0.00 0.00 19 1013.6
20260509000751 27 7 4.8 11.3 0.00 0.00 0.00 19 1013.3
20260509000157 27 70 3.2 9.7 0.00 0.00 0.00 19 1013.3
20260508235551 27 14 0.0 1.6 0.00 0.00 0.00 19 1013.3
20260508234949 27 54 0.0 9.7 0.00 0.00 0.00 18 1012.9
20260508234350 27 5 6.4 9.7 0.00 0.00 0.00 18 1013.3
20260508233754 27 97 0.0 4.8 0.00 0.00 0.00 18 1013.3
20260508233203 27 345 0.0 14.5 0.00 0.00 0.00 18 1013.3
20260508232559 28 32 8.0 24.1 0.00 0.00 0.00 18 1012.9
20260508232433 28 332 0.0 24.1 0.00 0.00 0.00 16 1013.3
20260508231400 28 352 0.0 0.0 0.00 0.00 0.00 17 1012.9
20260508230847 28 25 0.0 11.3 0.00 0.00 0.00 17 1012.9
20260508230255 28 334 1.6 11.3 0.00 0.00 0.00 17 1012.9
20260508225655 28 327 0.0 0.0 0.00 0.00 0.00 16 1013.3
20260508225312 28 18 0.0 16.1 0.00 0.00 0.00 16 1012.9
20260508224500 29 338 12.9 16.1 0.00 0.00 0.00 15 1012.9
20260508223857 29 341 1.6 3.2 0.00 0.00 0.00 16 1012.9
20260508223307 28 18 0.0 4.8 0.00 0.00 0.00 16 1012.6
20260508222633 28 0 0.0 3.2 0.00 0.00 0.00 17 1012.6
20260508222054 29 335 0.0 0.0 0.00 0.00 0.00 16 1012.9
20260508221412 28 327 0.0 0.0 0.00 0.00 0.00 16 1012.9
20260508221003 29 352 0.0 0.0 0.00 0.00 0.00 15 1012.9
20260508220151 28 357 0.0 0.0 0.00 0.00 0.00 16 1012.9
20260508215601 29 22 0.0 0.0 0.00 0.00 0.00 16 1012.9
20260508214953 29 335 0.0 11.3 0.00 0.00 0.00 15 1013.3
20260508214353 29 55 3.2 11.3 0.00 0.00 0.00 15 1013.3
20260508213756 29 342 0.0 3.2 0.00 0.00 0.00 15 1013.3
20260508213419 28 350 1.6 3.2 0.00 0.00 0.00 15 1013.3
20260508213030 28 353 0.0 6.4 0.00 0.00 0.00 15 1013.3
20260508211951 28 352 0.0 0.0 0.00 0.00 0.00 16 1013.6
20260508211446 28 355 0.0 4.8 0.00 0.00 0.00 16 1013.6
20260508211353 28 324 0.0 1.6 0.00 0.00 0.00 16 1013.3
20260508210858 28 349 1.6 4.8 0.00 0.00 0.00 15 1013.6
20260508205500 29 8 0.0 3.2 0.00 0.00 0.00 16 1013.3
20260508205333 28 98 0.0 12.9 0.00 0.00 0.00 17 1013.6
20260508204331 29 334 0.0 12.9 0.00 0.00 0.00 16 1013.6
20260508203737 28 3 0.0 3.2 0.00 0.00 0.00 17 1013.3
20260508203157 28 357 0.0 1.6 0.00 0.00 0.00 17 1013.6
20260508202653 29 327 0.0 1.6 0.00 0.00 0.00 16 1013.9
20260508202342 28 114 0.0 1.6 0.00 0.00 0.00 15 1013.6
20260508201605 28 112 0.0 0.0 0.00 0.00 0.00 15 1013.9
20260508200958 28 356 0.0 12.9 0.00 0.00 0.00 17 1013.6
20260508200351 28 1 9.7 12.9 0.00 0.00 0.00 16 1013.9
20260508195752 28 328 3.2 9.7 0.00 0.00 0.00 17 1013.6
20260508195149 28 334 3.2 11.3 0.00 0.00 0.00 17 1013.9
20260508194546 28 344 4.8 17.7 0.00 0.00 0.00 16 1013.6
20260508194016 28 267 0.0 6.4 0.00 0.00 0.00 18 1013.6
20260508193840 28 348 0.0 6.4 0.00 0.00 0.00 16 1013.9
20260508192749 28 327 0.0 6.4 0.00 0.00 0.00 16 1013.6
20260508192157 27 6 1.6 12.9 0.00 0.00 0.00 16 1013.9
20260508191552 28 342 6.4 12.9 0.00 0.00 0.00 16 1013.9
20260508190955 28 328 8.0 17.7 0.00 0.00 0.00 16 1013.9
20260508190348 28 340 0.0 6.4 0.00 0.00 0.00 17 1013.6
20260508185807 28 303 0.0 6.4 0.00 0.00 0.00 17 1013.9
20260508185245 28 15 0.0 14.5 0.00 0.00 0.00 18 1013.9
20260508184654 27 9 6.4 14.5 0.00 0.00 0.00 17 1014.3
20260508184319 27 315 0.0 1.6 0.00 0.00 0.00 16 1013.9
20260508183450 27 169 0.0 9.7 0.00 0.00 0.00 18 1013.9
20260508183322 27 6 3.2 9.7 0.00 0.00 0.00 18 1014.6
20260508182252 27 4 0.0 6.4 0.00 0.00 0.00 19 1014.3
20260508181911 27 316 0.0 14.5 0.00 0.00 0.00 18 1014.6
20260508181052 26 332 0.0 0.0 0.00 0.00 0.00 20 1014.3
20260508180505 27 254 0.0 0.0 0.00 0.00 0.00 20 1014.3
20260508175937 26 16 0.0 1.6 0.00 0.00 0.00 18 1014.6
20260508175631 27 339 0.0 0.0 0.00 0.00 0.00 20 1014.6
20260508175014 26 303 0.0 0.0 0.00 0.00 0.00 20 1015.0
20260508174334 26 16 0.0 1.6 0.00 0.00 0.00 21 1014.6
20260508173457 26 17 0.0 1.6 0.00 0.00 0.00 21 1015.0
20260508172850 26 341 0.0 0.0 0.00 0.00 0.00 21 1014.6
20260508172252 25 5 0.0 0.0 0.00 0.00 0.00 21 1015.0
20260508171645 26 3 0.0 1.6 0.00 0.00 0.00 21 1014.6
20260508171051 25 9 0.0 4.8 0.00 0.00 0.00 22 1015.0
20260508170441 25 0 1.6 4.8 0.00 0.00 0.00 22 1015.0
20260508165857 26 331 0.0 0.0 0.00 0.00 0.00 23 1015.3
20260508165254 25 351 0.0 1.6 0.00 0.00 0.00 25 1015.0
20260508164714 26 215 0.0 1.6 0.00 0.00 0.00 24 1015.0
20260508164416 25 332 0.0 4.8 0.00 0.00 0.00 24 1015.0
20260508163552 25 312 3.2 4.8 0.00 0.00 0.00 27 1015.3
20260508162949 24 203 0.0 1.6 0.00 0.00 0.00 28 1015.0
20260508162358 23 334 0.0 1.6 0.00 0.00 0.00 29 1015.3
20260508161750 23 325 0.0 1.6 0.00 0.00 0.00 29 1015.0
20260508161137 23 311 0.0 0.0 0.00 0.00 0.00 30 1015.3
20260508160555 23 339 0.0 3.2 0.00 0.00 0.00 29 1015.0
20260508160207 23 225 1.6 3.2 0.00 0.00 0.00 30 1015.0
20260508155430 23 236 0.0 4.8 0.00 0.00 0.00 29 1015.3
20260508154851 22 241 0.0 4.8 0.00 0.00 0.00 28 1015.0
20260508154254 22 223 0.0 1.6 0.00 0.00 0.00 30 1015.3
20260508154157 22 254 0.0 0.0 0.00 0.00 0.00 31 1015.3
20260508153053 22 177 0.0 0.0 0.00 0.00 0.00 33 1015.3
20260508152451 21 187 0.0 0.0 0.00 0.00 0.00 34 1015.0
20260508152123 21 255 0.0 0.0 0.00 0.00 0.00 36 1015.6
20260508151253 20 259 0.0 0.0 0.00 0.00 0.00 40 1015.3
20260508150654 21 215 0.0 0.0 0.00 0.00 0.00 41 1015.6
20260508150112 20 233 0.0 0.0 0.00 0.00 0.00 42 1015.3
20260508145513 19 221 0.0 0.0 0.00 0.00 0.00 44 1015.3